Language: 


Des rapports , des résumés tant et plus, au choix de chacun....


Données statistiques de la station
Quotidien Rapport Mars 22, 2017 Unités:  Métrique    Anglais   les deux
« Précédent Jour
Suivant Jour »
Quotidien Hebdomadaire Mensuel Annuel Actuel
  Haut: Bas: Moyen:
Température: 12.7 °C 2.1 °C 7.8 °C
Pt de rosée: 5.9 °C -0.4 °C 2.4 °C
Humidité: 86 % 52 % 70 %
Vitesse du vent: 28.0 km/h 0.0 km/h 10 km/h
Rafales: 33.1 km/h - -
Vent:- - SSE
Pression: 1013.1 hPa 1008.0 hPa -
Précipitation: 0.0 mm    
Historical Graphs
 
 
Données statistiques pour Mars 22, 2017
Heure Température Point de rosée Pression Vent Vitesse du vent Refales Humidité Pluie (taux horaire)
00:03 3.3 °C 0.1 °C 1012.1 hPa Calm   6.1 km/h 79 % 0.0 mm
00:08 3.2 °C -0.1 °C 1013.1 hPa Calm   6.1 km/h 79 % 0.0 mm
00:13 3.1 °C 0.0 °C 1013.1 hPa Calm   1.4 km/h 80 % 0.0 mm
00:18 2.9 °C -0.2 °C 1013.1 hPa Calm     80 % 0.0 mm
00:23 2.8 °C -0.3 °C 1013.1 hPa Calm   5.5 km/h 80 % 0.0 mm
00:28 2.8 °C -0.1 °C 1013.1 hPa Calm   5.5 km/h 81 % 0.0 mm
00:33 2.7 °C -0.2 °C 1013.1 hPa SSE 1.8 km/h 1.8 km/h 81 % 0.0 mm
00:38 2.7 °C -0.3 °C 1013.1 hPa Calm   5.5 km/h 81 % 0.0 mm
00:43 2.7 °C -0.1 °C 1013.1 hPa Calm   5.5 km/h 82 % 0.0 mm
00:48 2.7 °C -0.1 °C 1013.1 hPa Calm   2.6 km/h 82 % 0.0 mm
00:53 2.6 °C -0.2 °C 1013.1 hPa Calm   1.4 km/h 82 % 0.0 mm
00:58 2.6 °C -0.2 °C 1013.1 hPa Calm   6.1 km/h 82 % 0.0 mm
01:03 2.4 °C -0.2 °C 1013.1 hPa Calm   6.1 km/h 83 % 0.0 mm
01:08 2.3 °C -0.2 °C 1013.1 hPa Calm   6.1 km/h 83 % 0.0 mm
01:13 2.3 °C -0.2 °C 1013.1 hPa Calm   1.4 km/h 83 % 0.0 mm
01:18 2.4 °C 0.0 °C 1013.1 hPa Calm   2.6 km/h 84 % 0.0 mm
01:23 2.3 °C -0.1 °C 1012.1 hPa Calm   2.6 km/h 84 % 0.0 mm
01:28 2.3 °C -0.1 °C 1012.1 hPa Calm   2.1 km/h 84 % 0.0 mm
01:33 2.3 °C -0.2 °C 1012.1 hPa Calm   2.1 km/h 84 % 0.0 mm
01:38 2.3 °C -0.2 °C 1012.1 hPa Calm     84 % 0.0 mm
01:43 2.1 °C -0.4 °C 1012.1 hPa Calm     84 % 0.0 mm
01:48 2.1 °C -0.4 °C 1012.1 hPa Calm     84 % 0.0 mm
01:54 2.1 °C -0.2 °C 1012.1 hPa Calm   2.6 km/h 85 % 0.0 mm
01:59 2.1 °C -0.2 °C 1012.1 hPa Calm   2.6 km/h 85 % 0.0 mm
02:04 2.3 °C 0.0 °C 1012.1 hPa Calm   4.7 km/h 85 % 0.0 mm
02:09 2.3 °C 0.2 °C 1011.1 hPa SSE 6.1 km/h 6.1 km/h 86 % 0.0 mm
02:14 2.4 °C 0.3 °C 1011.1 hPa SSE 5.8 km/h 6.1 km/h 86 % 0.0 mm
02:19 2.4 °C 0.3 °C 1011.1 hPa Calm   5.8 km/h 86 % 0.0 mm
02:24 2.4 °C 0.3 °C 1012.1 hPa Calm     86 % 0.0 mm
02:29 2.4 °C 0.3 °C 1012.1 hPa Calm     86 % 0.0 mm
02:34 2.3 °C 0.1 °C 1012.1 hPa Calm   4.3 km/h 85 % 0.0 mm
02:39 2.4 °C 0.2 °C 1011.1 hPa Calm   4.3 km/h 85 % 0.0 mm
02:44 2.6 °C 0.4 °C 1011.1 hPa South 6.4 km/h 7.9 km/h 86 % 0.0 mm
02:49 2.7 °C 0.6 °C 1011.1 hPa Calm   11.9 km/h 86 % 0.0 mm
02:54 2.8 °C 0.7 °C 1011.1 hPa SSE 6.1 km/h 11.9 km/h 86 % 0.0 mm
02:59 3.1 °C 0.9 °C 1011.1 hPa Calm   10.5 km/h 86 % 0.0 mm
03:04 3.1 °C 0.9 °C 1011.1 hPa Calm   7.9 km/h 86 % 0.0 mm
03:09 3.1 °C 0.8 °C 1011.1 hPa Calm   6.8 km/h 85 % 0.0 mm
03:14 3.1 °C 0.8 °C 1011.1 hPa SE 5.5 km/h 8.7 km/h 85 % 0.0 mm
03:19 3.2 °C 0.9 °C 1011.1 hPa SE 8.7 km/h 16.3 km/h 85 % 0.0 mm
03:24 3.3 °C 0.9 °C 1011.1 hPa Calm   16.3 km/h 84 % 0.0 mm
03:29 3.3 °C 0.9 °C 1011.1 hPa SE 7.9 km/h 10.1 km/h 84 % 0.0 mm
03:34 3.3 °C 0.7 °C 1011.1 hPa SE 7.9 km/h 10.8 km/h 83 % 0.0 mm
03:39 3.3 °C 0.7 °C 1011.1 hPa SSE 4.3 km/h 10.8 km/h 83 % 0.0 mm
03:44 3.4 °C 0.7 °C 1011.1 hPa SE 8.7 km/h 10.5 km/h 82 % 0.0 mm
03:49 3.6 °C 0.7 °C 1011.1 hPa SE 7.9 km/h 10.5 km/h 82 % 0.0 mm
03:54 3.6 °C 0.8 °C 1011.1 hPa Calm   10.5 km/h 82 % 0.0 mm
03:59 3.7 °C 0.9 °C 1011.1 hPa SE 9.3 km/h 10.1 km/h 82 % 0.0 mm
04:04 3.8 °C 0.8 °C 1011.1 hPa SE 9.0 km/h 13.7 km/h 81 % 0.0 mm
04:09 3.9 °C 0.8 °C 1010.0 hPa ESE 5.5 km/h 16.3 km/h 80 % 0.0 mm
04:14 4.0 °C 0.9 °C 1010.0 hPa SSE 4.7 km/h 16.3 km/h 80 % 0.0 mm
04:19 4.0 °C 0.7 °C 1010.0 hPa SE 6.9 km/h 13.7 km/h 79 % 0.0 mm
04:24 4.0 °C 0.5 °C 1011.1 hPa South 9.7 km/h 14.3 km/h 78 % 0.0 mm
04:29 3.9 °C 0.4 °C 1011.1 hPa SSE 4.3 km/h 14.3 km/h 78 % 0.0 mm
04:34 3.9 °C 0.4 °C 1011.1 hPa South 5.0 km/h 11.9 km/h 78 % 0.0 mm
04:39 3.9 °C 0.4 °C 1010.0 hPa Calm   13.0 km/h 78 % 0.0 mm
04:44 3.8 °C 0.5 °C 1010.0 hPa SSE 10.1 km/h 13.0 km/h 79 % 0.0 mm
04:49 3.8 °C 0.5 °C 1010.0 hPa SE 1.4 km/h 16.6 km/h 79 % 0.0 mm
04:54 3.7 °C 0.4 °C 1011.1 hPa South 9.3 km/h 16.6 km/h 79 % 0.0 mm
04:59 3.7 °C 0.4 °C 1011.1 hPa SSE 6.9 km/h 16.3 km/h 79 % 0.0 mm
05:04 3.6 °C 0.3 °C 1011.1 hPa SSE 8.7 km/h 13.0 km/h 79 % 0.0 mm
05:09 3.6 °C 0.5 °C 1010.0 hPa SSE 2.6 km/h 13.0 km/h 80 % 0.0 mm
05:14 3.6 °C 0.4 °C 1010.0 hPa SSE 9.0 km/h 12.6 km/h 80 % 0.0 mm
05:19 3.6 °C 0.6 °C 1010.0 hPa SSE 7.9 km/h 11.6 km/h 81 % 0.0 mm
05:24 3.6 °C 0.6 °C 1010.0 hPa Calm   13.7 km/h 81 % 0.0 mm
05:29 3.6 °C 0.6 °C 1010.0 hPa Calm   13.7 km/h 81 % 0.0 mm
05:34 3.6 °C 0.7 °C 1010.0 hPa SE 9.7 km/h 12.2 km/h 82 % 0.0 mm
05:39 3.6 °C 0.7 °C 1010.0 hPa South 6.9 km/h 11.9 km/h 82 % 0.0 mm
05:44 3.6 °C 0.9 °C 1010.0 hPa SSE 4.7 km/h 16.3 km/h 83 % 0.0 mm
05:49 3.6 °C 1.1 °C 1010.0 hPa SSE 10.8 km/h 16.3 km/h 84 % 0.0 mm
05:54 3.6 °C 1.2 °C 1010.0 hPa SE 10.5 km/h 12.6 km/h 84 % 0.0 mm
05:59 3.6 °C 1.1 °C 1010.0 hPa SSE 5.0 km/h 12.6 km/h 84 % 0.0 mm
06:05 3.6 °C 1.1 °C 1010.0 hPa SSE 6.9 km/h 13.7 km/h 84 % 0.0 mm
06:10 3.6 °C 1.1 °C 1010.0 hPa SSE 3.5 km/h 13.7 km/h 84 % 0.0 mm
06:15 3.6 °C 1.2 °C 1010.0 hPa South 9.7 km/h 16.6 km/h 85 % 0.0 mm
06:20 3.6 °C 1.2 °C 1010.0 hPa SSE 5.8 km/h 16.6 km/h 85 % 0.0 mm
06:25 3.6 °C 1.2 °C 1010.0 hPa SSE 5.8 km/h 16.6 km/h 85 % 0.0 mm
06:30 3.6 °C 1.3 °C 1010.0 hPa SE 9.0 km/h 12.6 km/h 85 % 0.0 mm
06:35 3.7 °C 1.6 °C 1010.0 hPa South 10.1 km/h 16.6 km/h 86 % 0.0 mm
06:40 3.7 °C 1.6 °C 1010.0 hPa SSE 9.3 km/h 19.1 km/h 86 % 0.0 mm
06:45 3.7 °C 1.6 °C 1010.0 hPa SSE 6.4 km/h 19.1 km/h 86 % 0.0 mm
06:50 3.7 °C 1.6 °C 1010.0 hPa SSE 13.0 km/h 19.1 km/h 86 % 0.0 mm
06:55 3.8 °C 1.7 °C 1009.0 hPa SSE 9.7 km/h 19.1 km/h 86 % 0.0 mm
07:00 3.8 °C 1.7 °C 1009.0 hPa SSW 10.5 km/h 17.2 km/h 86 % 0.0 mm
07:05 3.9 °C 1.6 °C 1009.0 hPa SSE 5.8 km/h 17.2 km/h 85 % 0.0 mm
07:10 3.9 °C 1.6 °C 1010.0 hPa South 6.9 km/h 18.3 km/h 85 % 0.0 mm
07:15 3.9 °C 1.6 °C 1010.0 hPa South 16.9 km/h 18.3 km/h 85 % 0.0 mm
07:20 4.0 °C 1.7 °C 1010.0 hPa SSE 10.5 km/h 18.0 km/h 85 % 0.0 mm
07:25 4.2 °C 1.9 °C 1010.0 hPa SSE 9.7 km/h 16.3 km/h 85 % 0.0 mm
07:30 4.3 °C 2.0 °C 1010.0 hPa SSE 9.7 km/h 16.9 km/h 85 % 0.0 mm
07:35 4.5 °C 2.2 °C 1010.0 hPa SSE 6.1 km/h 16.9 km/h 85 % 0.0 mm
07:40 4.7 °C 2.4 °C 1009.0 hPa SSE 10.8 km/h 14.0 km/h 85 % 0.0 mm
07:45 5.0 °C 2.5 °C 1009.0 hPa South 5.5 km/h 14.0 km/h 84 % 0.0 mm
07:50 5.2 °C 2.7 °C 1009.0 hPa SE 12.6 km/h 12.6 km/h 84 % 0.0 mm
07:55 5.5 °C 2.8 °C 1009.0 hPa SSE 9.7 km/h 13.7 km/h 83 % 0.0 mm
08:00 5.6 °C 2.8 °C 1009.0 hPa SSE 9.3 km/h 16.9 km/h 82 % 0.0 mm
08:05 5.9 °C 3.1 °C 1009.0 hPa SE 6.4 km/h 16.9 km/h 82 % 0.0 mm
08:10 6.2 °C 3.0 °C 1010.0 hPa South 15.8 km/h 16.9 km/h 80 % 0.0 mm
08:15 6.3 °C 3.1 °C 1010.0 hPa South 9.0 km/h 16.9 km/h 80 % 0.0 mm
08:20 6.6 °C 3.2 °C 1010.0 hPa SSW 11.6 km/h 16.6 km/h 79 % 0.0 mm
08:25 6.8 °C 3.3 °C 1010.0 hPa SE 9.0 km/h 16.9 km/h 78 % 0.0 mm
08:30 7.1 °C 3.3 °C 1010.0 hPa SSW 8.7 km/h 16.9 km/h 77 % 0.0 mm
08:35 7.3 °C 3.3 °C 1010.0 hPa South 15.1 km/h 16.6 km/h 76 % 0.0 mm
08:40 7.6 °C 3.6 °C 1010.0 hPa SSE 16.6 km/h 18.3 km/h 76 % 0.0 mm
08:45 7.6 °C 3.4 °C 1010.0 hPa South 9.7 km/h 21.2 km/h 75 % 0.0 mm
08:50 7.7 °C 3.6 °C 1010.0 hPa SSE 17.7 km/h 21.2 km/h 75 % 0.0 mm
08:55 7.9 °C 3.6 °C 1010.0 hPa SSE 14.0 km/h 20.1 km/h 74 % 0.0 mm
09:00 8.2 °C 3.9 °C 1010.0 hPa South 6.4 km/h 17.2 km/h 74 % 0.0 mm
09:05 8.3 °C 3.9 °C 1010.0 hPa SSE 12.6 km/h 17.7 km/h 74 % 0.0 mm
09:10 8.5 °C 3.9 °C 1010.0 hPa SSE 21.2 km/h 21.2 km/h 73 % 0.0 mm
09:15 8.7 °C 4.2 °C 1010.0 hPa South 13.0 km/h 21.2 km/h 73 % 0.0 mm
09:20 8.8 °C 4.1 °C 1010.0 hPa SSE 13.7 km/h 21.9 km/h 72 % 0.0 mm
09:25 8.9 °C 3.9 °C 1010.0 hPa SSE 12.2 km/h 21.9 km/h 71 % 0.0 mm
09:30 9.0 °C 4.1 °C 1010.0 hPa South 12.6 km/h 24.8 km/h 71 % 0.0 mm
09:35 9.3 °C 4.5 °C 1010.0 hPa SSW 11.6 km/h 24.8 km/h 72 % 0.0 mm
09:41 9.5 °C 4.5 °C 1010.0 hPa SSE 16.3 km/h 21.2 km/h 71 % 0.0 mm
09:46 9.5 °C 4.3 °C 1010.0 hPa WSW 16.3 km/h 21.2 km/h 70 % 0.0 mm
09:51 9.6 °C 4.2 °C 1010.0 hPa SSE 13.7 km/h 27.7 km/h 69 % 0.0 mm
09:56 9.8 °C 4.4 °C 1010.0 hPa SSE 16.6 km/h 27.7 km/h 69 % 0.0 mm
10:01 10.0 °C 4.6 °C 1010.0 hPa SSE 12.2 km/h 22.4 km/h 69 % 0.0 mm
10:06 10.2 °C 4.8 °C 1010.0 hPa SSE 17.2 km/h 22.4 km/h 69 % 0.0 mm
10:11 10.4 °C 4.9 °C 1010.0 hPa SSW 9.0 km/h 22.4 km/h 69 % 0.0 mm
10:16 10.3 °C 4.4 °C 1010.0 hPa SSW 13.0 km/h 27.7 km/h 67 % 0.0 mm
10:21 10.3 °C 4.6 °C 1010.0 hPa SSE 8.7 km/h 27.7 km/h 68 % 0.0 mm
10:26 10.3 °C 4.6 °C 1010.0 hPa SSE 22.4 km/h 27.4 km/h 68 % 0.0 mm
10:31 10.2 °C 4.6 °C 1010.0 hPa SSE 20.6 km/h 28.0 km/h 68 % 0.0 mm
10:36 10.1 °C 4.9 °C 1010.0 hPa SSE 19.1 km/h 28.0 km/h 70 % 0.0 mm
10:41 9.6 °C 4.2 °C 1010.0 hPa South 16.6 km/h 27.0 km/h 69 % 0.0 mm
10:46 9.1 °C 4.1 °C 1010.0 hPa SSW 10.1 km/h 27.0 km/h 71 % 0.0 mm
10:51 9.0 °C 4.2 °C 1010.0 hPa SSW 16.3 km/h 22.7 km/h 72 % 0.0 mm
10:56 9.1 °C 4.5 °C 1010.0 hPa South 20.9 km/h 27.4 km/h 73 % 0.0 mm
11:01 9.7 °C 5.1 °C 1010.0 hPa South 11.6 km/h 27.4 km/h 73 % 0.0 mm
11:06 10.1 °C 5.4 °C 1010.0 hPa SSE 24.5 km/h 24.5 km/h 73 % 0.0 mm
11:11 10.1 °C 4.9 °C 1010.0 hPa SSE 23.3 km/h 25.3 km/h 70 % 0.0 mm
11:16 10.4 °C 5.3 °C 1010.0 hPa South 24.8 km/h 25.3 km/h 71 % 0.0 mm
11:21 10.2 °C 4.8 °C 1010.0 hPa SSE 27.7 km/h 33.1 km/h 69 % 0.0 mm
11:26 9.9 °C 4.4 °C 1010.0 hPa South 20.6 km/h 33.1 km/h 69 % 0.0 mm
11:31 9.9 °C 4.4 °C 1010.0 hPa ESE 20.9 km/h 26.7 km/h 69 % 0.0 mm
11:36 10.2 °C 4.9 °C 1010.0 hPa South 16.6 km/h 26.7 km/h 70 % 0.0 mm
11:41 10.1 °C 4.9 °C 1010.0 hPa South 16.9 km/h 23.8 km/h 70 % 0.0 mm
11:46 10.4 °C 5.2 °C 1010.0 hPa SSE 16.3 km/h 30.9 km/h 70 % 0.0 mm
11:51 10.5 °C 4.8 °C 1010.0 hPa South 20.6 km/h 30.9 km/h 68 % 0.0 mm
11:56 10.7 °C 5.2 °C 1010.0 hPa SSW 19.8 km/h 29.9 km/h 69 % 0.0 mm
12:01 10.3 °C 4.6 °C 1010.0 hPa South 14.0 km/h 29.9 km/h 68 % 0.0 mm
12:06 10.0 °C 4.3 °C 1010.0 hPa SSE 12.6 km/h 28.0 km/h 68 % 0.0 mm
12:11 10.7 °C 5.4 °C 1010.0 hPa South 24.8 km/h 30.2 km/h 70 % 0.0 mm
12:16 10.6 °C 4.9 °C 1010.0 hPa SSE 13.0 km/h 30.2 km/h 68 % 0.0 mm
12:21 10.9 °C 5.2 °C 1010.0 hPa SSE 16.9 km/h 27.4 km/h 68 % 0.0 mm
12:26 11.2 °C 5.1 °C 1010.0 hPa South 14.3 km/h 25.3 km/h 66 % 0.0 mm
12:31 10.9 °C 4.8 °C 1010.0 hPa SSE 19.5 km/h 25.3 km/h 66 % 0.0 mm
12:36 10.3 °C 4.2 °C 1010.0 hPa SSE 14.3 km/h 23.3 km/h 66 % 0.0 mm
12:41 11.1 °C 5.2 °C 1010.0 hPa SSW 19.5 km/h 22.7 km/h 67 % 0.0 mm
12:46 11.6 °C 5.7 °C 1010.0 hPa SE 11.9 km/h 22.7 km/h 67 % 0.0 mm
12:47 11.7 °C 5.9 °C 1010.0 hPa South 17.7 km/h 22.7 km/h 68 % 0.0 mm
12:52 11.7 °C 5.1 °C 1010.0 hPa SSE 13.0 km/h 28.5 km/h 64 % 0.0 mm
12:57 12.1 °C 5.2 °C 1010.0 hPa South 20.9 km/h 28.5 km/h 63 % 0.0 mm
13:02 12.3 °C 5.5 °C 1010.0 hPa South 12.6 km/h 28.5 km/h 63 % 0.0 mm
13:07 11.8 °C 4.5 °C 1010.0 hPa SSE 17.2 km/h 27.0 km/h 61 % 0.0 mm
13:12 11.1 °C 3.8 °C 1010.0 hPa SSE 20.9 km/h 24.8 km/h 61 % 0.0 mm
13:18 10.7 °C 3.9 °C 1010.0 hPa South 16.9 km/h 24.8 km/h 63 % 0.0 mm
13:23 10.7 °C 4.2 °C 1010.0 hPa South 16.3 km/h 24.5 km/h 64 % 0.0 mm
13:28 10.9 °C 4.6 °C 1010.0 hPa SSE 20.6 km/h 24.5 km/h 65 % 0.0 mm
13:33 11.2 °C 4.8 °C 1010.0 hPa SSE 16.6 km/h 25.6 km/h 65 % 0.0 mm
13:38 10.9 °C 4.6 °C 1010.0 hPa East 16.3 km/h 25.6 km/h 65 % 0.0 mm
13:43 11.1 °C 4.9 °C 1010.0 hPa South 9.7 km/h 24.5 km/h 66 % 0.0 mm
13:48 11.1 °C 4.7 °C 1010.0 hPa SSE 12.6 km/h 23.3 km/h 65 % 0.0 mm
13:49 11.2 °C 4.8 °C 1010.0 hPa SE 13.0 km/h 23.3 km/h 65 % 0.0 mm
13:54 10.9 °C 4.6 °C 1010.0 hPa SE 13.7 km/h 21.2 km/h 65 % 0.0 mm
13:59 10.8 °C 4.4 °C 1010.0 hPa SSE 20.9 km/h 21.6 km/h 65 % 0.0 mm
14:04 11.2 °C 4.6 °C 1010.0 hPa SSE 13.7 km/h 23.8 km/h 64 % 0.0 mm
14:10 11.4 °C 5.1 °C 1009.0 hPa South 14.0 km/h 23.8 km/h 65 % 0.0 mm
14:15 11.8 °C 5.1 °C 1009.0 hPa SSE 12.2 km/h 27.0 km/h 63 % 0.0 mm
14:20 11.8 °C 4.8 °C 1009.0 hPa SSE 28.0 km/h 28.0 km/h 62 % 0.0 mm
14:25 12.1 °C 5.0 °C 1009.0 hPa SE 20.6 km/h 28.0 km/h 62 % 0.0 mm
14:30 11.8 °C 4.7 °C 1009.0 hPa SE 19.8 km/h 23.8 km/h 62 % 0.0 mm
14:35 12.2 °C 5.1 °C 1009.0 hPa SSE 12.6 km/h 22.4 km/h 62 % 0.0 mm
14:40 12.1 °C 4.3 °C 1009.0 hPa SSE 9.3 km/h 26.7 km/h 59 % 0.0 mm
14:45 12.7 °C 5.3 °C 1009.0 hPa SSE 16.9 km/h 26.7 km/h 61 % 0.0 mm
14:50 12.2 °C 4.2 °C 1009.0 hPa SSE 23.0 km/h 27.7 km/h 58 % 0.0 mm
14:55 11.9 °C 4.2 °C 1009.0 hPa SSE 17.2 km/h 27.7 km/h 59 % 0.0 mm
15:00 12.2 °C 4.4 °C 1009.0 hPa SSE 20.1 km/h 25.3 km/h 59 % 0.0 mm
15:05 11.7 °C 3.9 °C 1009.0 hPa SE 15.8 km/h 23.0 km/h 59 % 0.0 mm
15:10 11.8 °C 4.2 °C 1009.0 hPa SSE 16.3 km/h 23.3 km/h 60 % 0.0 mm
15:15 11.6 °C 4.1 °C 1009.0 hPa SSE 19.8 km/h 23.8 km/h 60 % 0.0 mm
15:20 11.9 °C 4.4 °C 1009.0 hPa East 20.6 km/h 23.8 km/h 60 % 0.0 mm
15:25 11.8 °C 4.0 °C 1008.0 hPa SSE 17.7 km/h 23.8 km/h 59 % 0.0 mm
15:30 12.1 °C 4.5 °C 1008.0 hPa SSE 9.7 km/h 30.2 km/h 60 % 0.0 mm
15:35 12.2 °C 4.1 °C 1008.0 hPa SE 16.6 km/h 30.2 km/h 58 % 0.0 mm
15:40 11.8 °C 3.8 °C 1008.0 hPa SE 20.9 km/h 24.5 km/h 58 % 0.0 mm
15:45 11.7 °C 3.4 °C 1008.0 hPa SSE 13.7 km/h 27.4 km/h 57 % 0.0 mm
15:50 11.8 °C 4.0 °C 1008.0 hPa East 12.6 km/h 27.4 km/h 59 % 0.0 mm
15:55 11.8 °C 3.8 °C 1009.0 hPa SE 15.8 km/h 24.8 km/h 58 % 0.0 mm
16:00 11.7 °C 3.9 °C 1009.0 hPa SSE 13.0 km/h 24.8 km/h 59 % 0.0 mm
16:05 11.7 °C 3.9 °C 1009.0 hPa SSE 14.0 km/h 20.9 km/h 59 % 0.0 mm
16:10 11.6 °C 3.8 °C 1009.0 hPa SSE 16.3 km/h 18.0 km/h 59 % 0.0 mm
16:15 11.4 °C 3.5 °C 1009.0 hPa SSE 12.6 km/h 18.0 km/h 58 % 0.0 mm
16:20 11.4 °C 3.5 °C 1009.0 hPa SSE 5.8 km/h 19.8 km/h 58 % 0.0 mm
16:25 11.6 °C 3.6 °C 1009.0 hPa SSE 11.9 km/h 19.8 km/h 58 % 0.0 mm
16:30 11.7 °C 3.7 °C 1009.0 hPa South 13.7 km/h 19.5 km/h 58 % 0.0 mm
16:35 11.6 °C 3.1 °C 1009.0 hPa SSE 9.3 km/h 17.7 km/h 56 % 0.0 mm
16:40 11.4 °C 2.7 °C 1009.0 hPa South 13.0 km/h 20.6 km/h 55 % 0.0 mm
16:45 11.4 °C 2.5 °C 1009.0 hPa SSE 11.6 km/h 23.3 km/h 54 % 0.0 mm
16:50 11.4 °C 2.5 °C 1009.0 hPa SSE 9.0 km/h 23.3 km/h 54 % 0.0 mm
16:55 11.7 °C 2.9 °C 1009.0 hPa ESE 8.7 km/h 19.8 km/h 55 % 0.0 mm
17:00 11.8 °C 2.7 °C 1009.0 hPa SSE 12.2 km/h 19.8 km/h 54 % 0.0 mm
17:05 11.8 °C 2.5 °C 1009.0 hPa SE 15.8 km/h 19.5 km/h 53 % 0.0 mm
17:10 11.7 °C 2.4 °C 1009.0 hPa SSE 15.8 km/h 20.9 km/h 53 % 0.0 mm
17:15 11.6 °C 2.3 °C 1009.0 hPa SSE 10.1 km/h 20.9 km/h 53 % 0.0 mm
17:20 11.6 °C 2.3 °C 1009.0 hPa SE 7.9 km/h 20.6 km/h 53 % 0.0 mm
17:25 11.4 °C 2.5 °C 1010.0 hPa SE 11.9 km/h 19.8 km/h 54 % 0.0 mm
17:30 11.4 °C 2.5 °C 1010.0 hPa SSE 12.6 km/h 20.9 km/h 54 % 0.0 mm
17:35 11.4 °C 2.2 °C 1010.0 hPa SE 6.4 km/h 20.9 km/h 53 % 0.0 mm
17:41 11.4 °C 2.1 °C 1009.0 hPa ESE 9.7 km/h 20.6 km/h 53 % 0.0 mm
17:46 11.3 °C 1.8 °C 1009.0 hPa SSE 10.5 km/h 25.3 km/h 52 % 0.0 mm
17:47 11.3 °C 1.8 °C 1009.0 hPa SE 9.3 km/h 25.3 km/h 52 % 0.0 mm
17:52 11.2 °C 1.7 °C 1009.0 hPa SSE 13.7 km/h 25.3 km/h 52 % 0.0 mm
17:57 11.2 °C 1.7 °C 1009.0 hPa SE 10.1 km/h 23.8 km/h 52 % 0.0 mm
18:02 11.1 °C 1.6 °C 1009.0 hPa SSE 16.9 km/h 16.9 km/h 52 % 0.0 mm
18:07 11.0 °C 1.5 °C 1009.0 hPa SSE 10.1 km/h 16.9 km/h 52 % 0.0 mm
18:12 11.0 °C 1.8 °C 1009.0 hPa SE 12.6 km/h 16.9 km/h 53 % 0.0 mm
18:17 10.9 °C 1.7 °C 1009.0 hPa SE 13.0 km/h 14.0 km/h 53 % 0.0 mm
18:22 10.8 °C 1.6 °C 1009.0 hPa SSE 10.5 km/h 17.7 km/h 53 % 0.0 mm
18:27 10.8 °C 1.8 °C 1009.0 hPa ESE 10.5 km/h 17.7 km/h 54 % 0.0 mm
18:32 10.7 °C 1.7 °C 1009.0 hPa SSE 16.6 km/h 19.8 km/h 54 % 0.0 mm
18:37 10.7 °C 1.7 °C 1009.0 hPa SE 13.0 km/h 19.8 km/h 54 % 0.0 mm
18:42 10.7 °C 1.7 °C 1009.0 hPa SSE 20.9 km/h 21.2 km/h 54 % 0.0 mm
18:47 10.7 °C 1.7 °C 1009.0 hPa SE 16.3 km/h 21.2 km/h 54 % 0.0 mm
18:52 10.7 °C 1.5 °C 1009.0 hPa SSE 12.6 km/h 20.9 km/h 53 % 0.0 mm
18:57 10.7 °C 1.5 °C 1009.0 hPa SE 13.7 km/h 17.7 km/h 53 % 0.0 mm
19:02 10.6 °C 1.4 °C 1009.0 hPa SSE 9.7 km/h 17.7 km/h 53 % 0.0 mm
19:07 10.6 °C 1.7 °C 1009.0 hPa SSE 15.8 km/h 20.1 km/h 54 % 0.0 mm
19:12 10.5 °C 1.6 °C 1009.0 hPa SSE 11.9 km/h 20.1 km/h 54 % 0.0 mm
19:17 10.5 °C 1.6 °C 1009.0 hPa East 9.0 km/h 20.1 km/h 54 % 0.0 mm
19:22 10.4 °C 1.4 °C 1009.0 hPa SSE 9.7 km/h 16.9 km/h 54 % 0.0 mm
19:27 10.3 °C 1.6 °C 1009.0 hPa SE 9.7 km/h 14.0 km/h 55 % 0.0 mm
19:32 10.3 °C 1.6 °C 1009.0 hPa SE 7.6 km/h 14.0 km/h 55 % 0.0 mm
19:37 10.2 °C 1.6 °C 1009.0 hPa SE 17.2 km/h 17.2 km/h 55 % 0.0 mm
19:42 10.2 °C 1.6 °C 1010.0 hPa ESE 6.9 km/h 17.2 km/h 55 % 0.0 mm
19:47 10.2 °C 1.6 °C 1010.0 hPa SE 13.7 km/h 15.4 km/h 55 % 0.0 mm
19:52 10.2 °C 1.6 °C 1010.0 hPa SE 9.0 km/h 15.4 km/h 55 % 0.0 mm
19:57 10.2 °C 1.6 °C 1010.0 hPa ESE 8.7 km/h 17.7 km/h 55 % 0.0 mm
20:02 10.1 °C 1.4 °C 1010.0 hPa East 9.3 km/h 17.7 km/h 55 % 0.0 mm
20:07 10.0 °C 1.3 °C 1010.0 hPa SE 9.3 km/h 13.0 km/h 55 % 0.0 mm
20:12 10.0 °C 1.3 °C 1010.0 hPa SE 5.0 km/h 13.0 km/h 55 % 0.0 mm
20:17 10.0 °C 1.3 °C 1010.0 hPa ESE 5.8 km/h 11.6 km/h 55 % 0.0 mm
20:19 9.9 °C 1.5 °C 1010.0 hPa ESE 9.7 km/h 11.6 km/h 56 % 0.0 mm
20:21 9.9 °C 1.3 °C 1010.0 hPa SSE 6.1 km/h 14.0 km/h 55 % 0.0 mm
20:27 9.9 °C 1.3 °C 1010.0 hPa SE 8.7 km/h 14.0 km/h 55 % 0.0 mm
20:28 9.9 °C 1.5 °C 1010.0 hPa SE 6.1 km/h 14.0 km/h 56 % 0.0 mm
20:29 9.9 °C 1.5 °C 1010.0 hPa SE 6.9 km/h 14.0 km/h 56 % 0.0 mm
20:31 9.9 °C 1.5 °C 1010.0 hPa ESE 6.9 km/h 12.6 km/h 56 % 0.0 mm
20:34 9.8 °C 1.4 °C 1010.0 hPa SE 10.5 km/h 12.6 km/h 56 % 0.0 mm
20:37 9.9 °C 1.3 °C 1010.0 hPa SE 12.6 km/h 12.6 km/h 55 % 0.0 mm
20:39 9.9 °C 1.3 °C 1010.0 hPa ESE 9.7 km/h 12.6 km/h 55 % 0.0 mm
20:43 9.8 °C 1.4 °C 1010.0 hPa SE 10.8 km/h 12.6 km/h 56 % 0.0 mm
20:48 9.8 °C 1.4 °C 1010.0 hPa Calm   10.8 km/h 56 % 0.0 mm
20:53 9.6 °C 1.5 °C 1011.1 hPa ESE 6.4 km/h 10.5 km/h 57 % 0.0 mm
20:58 9.5 °C 1.7 °C 1011.1 hPa ESE 9.3 km/h 10.5 km/h 58 % 0.0 mm
21:03 9.4 °C 1.6 °C 1011.1 hPa SE 10.1 km/h 13.0 km/h 58 % 0.0 mm
21:05 9.4 °C 1.6 °C 1011.1 hPa ESE 8.7 km/h 13.0 km/h 58 % 0.0 mm
21:10 9.3 °C 1.7 °C 1010.0 hPa ESE 7.6 km/h 13.0 km/h 59 % 0.0 mm
21:15 9.1 °C 1.7 °C 1010.0 hPa SE 8.7 km/h 10.5 km/h 60 % 0.0 mm
21:20 9.0 °C 1.7 °C 1010.0 hPa ESE 4.7 km/h 12.6 km/h 60 % 0.0 mm
21:25 9.0 °C 1.9 °C 1011.1 hPa East 6.4 km/h 12.6 km/h 61 % 0.0 mm
21:30 8.9 °C 2.0 °C 1011.1 hPa East 6.1 km/h 11.9 km/h 62 % 0.0 mm
21:34 8.8 °C 2.2 °C 1011.1 hPa ESE 7.9 km/h 11.9 km/h 63 % 0.0 mm
21:35 8.8 °C 1.9 °C 1011.1 hPa ESE 8.7 km/h 12.2 km/h 62 % 0.0 mm
21:40 8.7 °C 2.3 °C 1011.1 hPa ESE 7.9 km/h 12.2 km/h 64 % 0.0 mm
21:45 8.6 °C 2.2 °C 1011.1 hPa East 9.0 km/h 12.2 km/h 64 % 0.0 mm
21:50 8.6 °C 2.4 °C 1011.1 hPa East 6.9 km/h 13.0 km/h 65 % 0.0 mm
21:55 8.5 °C 2.3 °C 1010.0 hPa East 10.1 km/h 13.0 km/h 65 % 0.0 mm
22:00 8.4 °C 2.2 °C 1010.0 hPa SE 4.3 km/h 10.8 km/h 65 % 0.0 mm
22:05 8.2 °C 2.1 °C 1010.0 hPa Calm   10.1 km/h 65 % 0.0 mm
22:10 8.1 °C 1.9 °C 1011.1 hPa Calm   9.7 km/h 65 % 0.0 mm
22:11 8.1 °C 1.9 °C 1011.1 hPa ESE 6.1 km/h 9.0 km/h 65 % 0.0 mm
22:16 7.9 °C 1.9 °C 1011.1 hPa East 5.0 km/h 9.0 km/h 66 % 0.0 mm
22:21 7.7 °C 1.7 °C 1011.1 hPa Calm   7.9 km/h 66 % 0.0 mm
22:26 7.3 °C 1.6 °C 1011.1 hPa East 1.8 km/h 7.9 km/h 67 % 0.0 mm
22:31 7.3 °C 2.1 °C 1011.1 hPa ENE 9.0 km/h 9.0 km/h 69 % 0.0 mm
22:36 7.3 °C 2.1 °C 1011.1 hPa ESE 7.6 km/h 9.7 km/h 69 % 0.0 mm
22:41 7.3 °C 2.2 °C 1011.1 hPa ESE 6.1 km/h 9.7 km/h 70 % 0.0 mm
22:46 7.3 °C 2.2 °C 1011.1 hPa ESE 9.0 km/h 11.9 km/h 70 % 0.0 mm
22:51 7.3 °C 2.2 °C 1011.1 hPa ESE 2.6 km/h 11.9 km/h 70 % 0.0 mm
22:57 7.2 °C 2.1 °C 1011.1 hPa ESE 6.9 km/h 10.1 km/h 70 % 0.0 mm
23:02 7.1 °C 2.2 °C 1011.1 hPa ESE 12.2 km/h 12.2 km/h 71 % 0.0 mm
23:07 6.9 °C 2.3 °C 1011.1 hPa ESE 3.2 km/h 12.2 km/h 72 % 0.0 mm
23:12 6.8 °C 2.2 °C 1011.1 hPa SE 7.9 km/h 10.5 km/h 72 % 0.0 mm
23:17 6.8 °C 2.2 °C 1011.1 hPa ESE 10.1 km/h 11.6 km/h 72 % 0.0 mm
23:22 6.8 °C 2.2 °C 1011.1 hPa SE 10.1 km/h 13.0 km/h 72 % 0.0 mm
23:27 6.8 °C 2.3 °C 1011.1 hPa ESE 5.0 km/h 13.0 km/h 73 % 0.0 mm
23:32 6.7 °C 2.2 °C 1011.1 hPa ESE 10.1 km/h 10.1 km/h 73 % 0.0 mm
23:37 6.7 °C 2.2 °C 1011.1 hPa SE 8.7 km/h 10.5 km/h 73 % 0.0 mm
23:42 6.7 °C 2.2 °C 1011.1 hPa ESE 6.4 km/h 10.5 km/h 73 % 0.0 mm
23:47 6.7 °C 2.2 °C 1011.1 hPa East 10.1 km/h 10.5 km/h 73 % 0.0 mm
23:52 6.8 °C 2.3 °C 1011.1 hPa East 7.6 km/h 10.5 km/h 73 % 0.0 mm
23:57 6.8 °C 2.3 °C 1010.0 hPa ESE 6.4 km/h 10.5 km/h 73 % 0.0 mm
Le Gheer Warneton
Courtoisie de Weather Underground - 2.25 mb

Mise a jour : 17-12-17 08:44:12
Généré par Cumulus 1.9.4 (1099)